Alexandria, Egypt

4:51 PM EET on August 17, 2017 (GMT +0200)
Alexandria

Weather History for HEAX - March, 2013

Change the Weather History Date:

Sunday, March 17, 2013

  Actual Average Record
Temperature  
Mean Temperature 62 °F -  
Max Temperature 67 °F 70 °F 78 °F (2003)
Min Temperature 57 °F 54 °F 41 °F (1999)
Degree Days  
Heating Degree Days 3    
Growing Degree Days 12 (Base 50)    
Moisture  
Dew Point 46 °F    
Average Humidity 56    
Maximum Humidity 72    
Minimum Humidity 37    
Precipitation  
Precipitation 0.00 in 0.01 in - ()
Sea Level Pressure  
Sea Level Pressure 30.08 in    
Wind  
Wind Speed 12 mph ()    
Max Wind Speed 16 mph    
Max Gust Speed -    
Visibility 6.2 miles    
Events      
Averages and records for this station are not official NWS values.
T = Trace of Precipitation, MM = Missing Value Source: Averaged Metar Reports

Daily Weather History Graph

Daily Weather History Graph

Search for Another Location

Airport or City:

Trip Planner

Search our weather history database for the weather conditions in past years. The results will help you decide how hot, cold, wet, or windy it might be!

Date:

Astronomy

Mar. 17, 2013 Rise Set
Actual Time 6:07 AM EET 6:09 PM EET
Civil Twilight 5:43 AM EET 6:33 PM EET
Nautical Twilight 5:15 AM EET 7:02 PM EET
Astronomical Twilight 4:47 AM EET 7:30 PM EET
Moon 9:26 AM EET 11:32 PM EET
Length of Visible Light 12h 50m
Length of Day
12h 01m
Waxing Crescent, 29% of the Moon is Illuminated
Mar 17
Waxing Crescent
Mar 19
First Quarter
Mar 27
Full
Apr 3
Last Quarter
Apr 10
New

Hourly Weather History & Observations

Time (EET) Temp. Dew Point Humidity Pressure Visibility Wind Dir Wind Speed Gust Speed Precip Events Conditions
12:00 AM 59.0 °F 48.2 °F 67% 30.04 in - WNW 13.8 mph - N/A   Clear
1:00 AM 59.0 °F 50.0 °F 72% 30.06 in - WNW 15.0 mph - N/A   Clear
2:00 AM 59 °F 47 °F 55% 30.06 in 6 mi WNW 11.5 mph - -  
2:00 AM 59.0 °F 46.4 °F 63% 30.06 in - WNW 11.5 mph - N/A   Clear
3:00 AM 59.0 °F 46.4 °F 63% 30.06 in - WNW 11.5 mph - N/A   Clear
4:00 AM 57.2 °F 46.4 °F 67% 30.06 in - NW 12.7 mph - N/A   Clear
5:00 AM 57.2 °F 48.2 °F 72% 30.01 in - WNW 10.4 mph - N/A   Clear
6:00 AM 59.0 °F 46.4 °F 63% 30.04 in 6.2 mi WNW 13.8 mph - N/A   Scattered Clouds
7:00 AM 60.8 °F 46.4 °F 59% 30.04 in 6.2 mi WNW 16.1 mph - N/A   Scattered Clouds
8:00 AM 62 °F 44 °F 39% 30.07 in 6 mi WNW 16.1 mph - -   Partly Cloudy
8:00 AM 62.6 °F 42.8 °F 48% 30.06 in 6.2 mi WNW 16.1 mph - N/A   Scattered Clouds
9:00 AM 62.6 °F 44.6 °F 52% 30.09 in 6.2 mi WNW 16.1 mph - N/A   Scattered Clouds
10:00 AM 64.4 °F 46.4 °F 52% 30.09 in 6.2 mi NW 16.1 mph - N/A   Scattered Clouds
11:00 AM 64.4 °F 44.6 °F 49% 30.09 in 6.2 mi WNW 13.8 mph - N/A   Scattered Clouds
12:00 PM 66.2 °F 44.6 °F 46% 30.09 in 6.2 mi WNW 16.1 mph - N/A   Scattered Clouds
1:00 PM 66.2 °F 42.8 °F 43% 30.09 in 6.2 mi WNW 15.0 mph - N/A   Scattered Clouds
2:00 PM 65 °F 45 °F 37% 30.10 in 6 mi WNW 13.8 mph - -   Partly Cloudy
2:00 PM 66.2 °F 44.6 °F 46% 30.09 in 6.2 mi WNW 13.8 mph - N/A   Scattered Clouds
3:00 PM 62.6 °F 48.2 °F 59% 30.09 in 6.2 mi NW 16.1 mph - N/A   Scattered Clouds
4:00 PM 62.6 °F 48.2 °F 59% 30.09 in 6.2 mi NW 13.8 mph - N/A   Scattered Clouds
5:00 PM 60.8 °F 46.4 °F 59% 30.09 in 6.2 mi WNW 13.8 mph - N/A   Scattered Clouds
6:00 PM 60.8 °F 46.4 °F 59% 30.09 in 6.2 mi NW 11.5 mph - N/A   Scattered Clouds
7:00 PM 60.8 °F 46.4 °F 59% 30.09 in 6.2 mi NW 13.8 mph - N/A   Scattered Clouds
8:00 PM 59 °F 46 °F 52% 30.11 in 6 mi NW 13.8 mph - -   Mostly Cloudy
8:00 PM 59.0 °F 46.4 °F 63% 30.09 in 6.2 mi NW 13.8 mph - N/A   Scattered Clouds
9:00 PM 60.8 °F 42.8 °F 52% 30.12 in 6.2 mi NW 13.8 mph - N/A   Mostly Cloudy
10:00 PM 59.0 °F 41.0 °F 51% 30.15 in 6.2 mi NW 11.5 mph - N/A   Scattered Clouds
11:00 PM 59.0 °F 42.8 °F 55% 30.15 in 6.2 mi WNW 13.8 mph - N/A   Scattered Clouds